Regional Weather Roundup
Issued by NWS

Home | Current Version | Previous Version | Graphics & Text | Print | Product List | Glossary On
Versions: 1 2 3 4 5 6 7 8 9 10 11 12 13 14 15 16 17 18 19 20 21 22 23 24 25 26 27 28 29 30 31 32 33 34 35 36 37 38 39 40 41 42 43 44 45 46 47 48 49 50
000
ASUS43 KMKX 040411
RWRWI

WISCONSIN REGIONAL WEATHER ROUNDUP
NATIONAL WEATHER SERVICE MILWAUKEE/SULLIVAN WI
1100 PM CDT THU SEP 03 2015

NOTE: "FAIR" INDICATES FEW OR NO CLOUDS BELOW 12,000 FEET WITH NO
SIGNIFICANT WEATHER AND/OR OBSTRUCTIONS TO VISIBILITY.

WIZ001-002-006>008-014>016-023>028-040500-
NORTHWEST WISCONSIN

CITY           SKY/WX    TMP DP  RH WIND       PRES   REMARKS
SUPERIOR ARPT  CLEAR     58  55  92 NE6       29.98S
ASHLAND        CLEAR     53  53 100 CALM      30.00R
HAYWARD        CLEAR     66  64  93 CALM      29.99R
SIREN          CLEAR     69  67  93 E3        29.96R
CUMBERLAND     CLEAR     68  64  88 E6        29.97S
RICE LAKE      CLEAR     69  65  86 E8        29.98S
CHETEK         CLEAR     68  66  94 SE3       29.97S
LADYSMITH      CLEAR     67  65  95 E3        30.01S
EAU CLAIRE     PTCLDY    71  65  81 E8        29.95R
MENOMONIE      MOCLDY    71  67  86 E6        29.96R
NEW RICHMOND   CLEAR     70  65  83 SE5       29.94S
OSCEOLA        PTCLDY    71  68  89 SE6       29.96S
$$

WIZ003>005-009-010-017-018-040500-
NORTH CENTRAL WISCONSIN

CITY           SKY/WX    TMP DP  RH WIND       PRES   REMARKS
MANITOWISH WTR MOCLDY    59  59 100 CALM      30.02S FOG
ARBOR VITAE    CLEAR     62  61  95 CALM      30.03S
WOODRUFF       CLEAR     62  61  95 CALM      30.03S
RHINELANDER    FOG       58  57  97 CALM      30.04R VSB 1/2
EAGLE RIVER    CLEAR     65  65  99 E3        30.03S
LAND O LAKES   CLEAR     62  62 100 SE3       30.05R
PHILLIPS       CLEAR     64  64  99 CALM      30.01R
TOMAHAWK       FOG       58  57  96 CALM      30.03R VSB 3/4
MEDFORD        CLEAR     62  62 100 E3        30.01S FOG
MERRILL        FOG       58  58 100 CALM      30.02R VSB 1/4
$$

WIZ029-030-035-036-043>047-040500-
CENTRAL WISCONSIN

CITY           SKY/WX    TMP DP  RH WIND       PRES   REMARKS
WAUSAU         CLEAR     64  63  96 CALM      29.99R
MOSINEE        CLEAR     64  64 100 CALM      30.01S
MARSHFIELD     CLEAR     66  62  87 E5        30.00R
STEVENS POINT  CLEAR     61  60  97 CALM      30.00S
WAUPACA        CLEAR     65  64  97 CALM      29.98S FOG
WAUTOMA        CLEAR     63  63 100 CALM      29.98S
WISC RAPIDS    CLEAR     64  62  93 CALM      30.00R FOG
CAMP DOUGLAS   PTCLDY    68  68 100 E3        29.97S FOG
$$

WIZ011>013-019>022-031-037>040-048>050-040500-
NORTHEAST WISCONSIN

CITY           SKY/WX    TMP DP  RH WIND       PRES   REMARKS
ANTIGO         CLEAR     63  62  95 CALM      30.03R
SHAWANO        NOT AVBL
OCONTO         CLEAR     61  61 100 CALM      29.97S
STURGEON BAY   PTCLDY    64  63  94 NE3       29.99S
GREEN BAY      CLEAR     65  63  93 N6        29.97S
MANITOWOC      CLEAR     63  62  97 MISG      29.96F
APPLETON       PTCLDY    66  64  94 N7        29.97S
CLINTONVILLE   FOG       63  63 100 NE3       29.99R VSB 1/2
OSHKOSH        CLEAR     66  63  90 CALM      29.97R
$$

WIZ032>034-041-042-053>061-040500-
SOUTHWEST WISCONSIN

CITY           SKY/WX    TMP DP  RH WIND       PRES   REMARKS
LA CROSSE      CLEAR     76  69  79 SE6       29.93R
SPARTA         CLEAR     71  64  78 SE5       29.97S
VIROQUA          N/A     71  70  95 E10       29.97S
BOSCOBEL       PTCLDY    77  69  76 VRB3      29.94R
PRAIRIE DU CHI PTCLDY    76  73  91 CALM      29.92S
PLATTEVILLE    PTCLDY    76  74  92 E9        29.95R
$$

WIZ056-057-062-063-064-067-068-040500-
SOUTH CENTRAL WISCONSIN

CITY           SKY/WX    TMP DP  RH WIND       PRES   REMARKS
REEDSBURG      MOCLDY    70  67  91 NE3       29.97S
BARABOO/DELLS  PTCLDY    69  65  89 CALM      29.98R
LONE ROCK      CLEAR     71  68  90 E7        29.96R
MINERAL POINT  PTCLDY    73  70  88 E8        29.97R
MADISON        MOCLDY    70  65  84 NE3       29.97R
MIDDLETON      CLEAR     70  67  90 E5        29.98R
WATERTOWN      CLOUDY    71  71  99 CALM      29.97R
MONROE         PTCLDY    70  68  94 NE8       29.96S
JANESVILLE     CLOUDY    73  72  94 E5        29.95R
$$

WIZ051-052-058>065-066-070>072-040500-
SOUTHEAST WISCONSIN

CITY           SKY/WX    TMP DP  RH WIND       PRES   REMARKS
MILWAUKEE      MOCLDY    67  64  90 N3        29.96R
WAUKESHA       CLOUDY    68  63  83 CALM      29.98R
MILWAUKEE/TIMM MOCLDY    66  61  82 CALM      29.98R
RACINE         MOCLDY    66  63  90 CALM      29.99R
BURLINGTON     CLOUDY    67  64  87 NE3       29.96S
KENOSHA        CLOUDY    69  65  86 NE6       29.97R
FOND DU LAC    CLEAR     65  64  97 NW5       29.97S
SHEBOYGAN      CLEAR     64  63  96 N3        29.96S
WEST BEND      CLEAR     63  63 100 CALM      29.97R
JUNEAU         MOCLDY    67  65  94 CALM      29.98R
$$

LSZ147-162-040500-
LAKE SUPERIOR

STATION/POSITION TIME  TEMP    WIND        PRES    WAVE
                       AIR SEA DIR/SP/G            HT/PER
                 (UTC) (F)     (DEG/KT/KT) (MB)    (FT/S)
W MID LAKE BUOY  0350   60 57   80/ 10/ 12 1015.8R   1/ 3
DEVILS ISLAND    0400   59      70/  7/  8 1015.8R
PORT WING        0340   56      40/  5/  6 1015.6R
SAXON HARBOR     0300   59        CALM     1014.9R
$$

LMZ867-665-643>646-040500-
LAKE MICHIGAN

STATION/POSITION TIME  TEMP    WIND        PRES    WAVE
                       AIR SEA DIR/SP/G            HT/PER
                 (UTC) (F)     (DEG/KT/KT) (MB)    (FT/S)
CHAMBERS ISLAND  0300   68      40/ 11/ 14 1014.9R
S GREEN BAY BUOY 0400   68 66   40/ 10/ 14 1016.1
N MID LAKE BUOY  0350   68 66   40/ 10/ 10 1014.2S   2/ 3
NORTHPORT PIER   0300   69      40/ 10/ 13 1014.9R
SISTER BAY       0311   68      30/  5/  9   N/A
ALGOMA LAKESHORE 0329          330/  5/  6   N/A
KEWAUNEE LAKESHO 0300   64     310/  4/  5 1013.7R
SHEBOYGAN LAKESH 0400   65     340/  9/  9 1014.4S
PORT WASHINGTON  0300   67     320/  4/  6 1014.6F
ATWATER BUOY     0400   60     270/  4/  4 1016.2R
MILWAUKEE LAKESH 0310   66      10/  7/  9   N/A
S MID LAKE BUOY  0350   69 71  350/ 10/ 12 1013.4R   1/ 3
KENOSHA   LAKESH 0400   67      10/  8/  9 1014.6R
$$

TC  - TEMPERATURE IN CELSIUS
VSB - VISIBILITY IN STATUTE MILES
WCI - WIND CHILL INDEX
HX  - HEAT INDEX



USA.gov is the U.S. government's official web portal to all federal, state and local government web resources and services.